User: anonymous   Login
Location: L�tisburg
(47.3947°N, 9.0820°E)
Time: 06:18:40
(UTC+00:00)
Language:

HJ-1C - Orbit

View from above orbital plane
View from above orbital plane
View from above satellite
View from above satellite

Ground track
Ground track

The orbit data is extracted from the following two-line orbital elements,

1 38997U 12064A   21134.53949057  .00004707  00000-0  10423-3 0  9993
2 38997  97.1197 164.1897 0007459 233.3688 281.2232 15.44242628476843
Epoch (UTC): 14 May 2021 12:56:51
Eccentricity: 0.0007459
inclination: 97.1197°
perigee height: 428 km
apogee height: 438 km
right ascension of ascending node: 164.1897°
argument of perigee: 233.3688°
revolutions per day: 15.44242628
mean anomaly at epoch: 281.2232°
orbit number at epoch: 47684

The dashed part of the orbit path shows where the satellite is in the earth's shadow,  

DLR